{"data":{"norad_id":38257,"intl_designator":"2012-021A","name":"YAOGAN-14","alt_names":[],"object_type":"PAYLOAD","status":"ACTIVE","operator":null,"country":"PRC","launch_date":"2012-05-10","launch_site_code":"TAISC","launch_vehicle":null,"mission":null,"orbit_class":"UNKNOWN","rcs_meters":5.41,"size_class":null,"mass_kg":null,"dimensions":null,"purposes":[],"wikipedia_slug":null,"has_3d_model":false,"image_url":null,"decayed_at":null,"tle_current":{"epoch":"2026-05-25T05:41:40.415712Z","epoch_age_seconds":48511,"freshness":"FRESH","line1":"1 38257U 12021A   26145.23727333  .00004339  00000+0  16332-3 0  9995","line2":"2 38257  97.2998 282.9897 0003556 258.7192 101.3648 15.27633809782317","mean_motion":15.27633809,"eccentricity":0.0003556,"inclination_deg":97.2998,"raan_deg":282.9897,"arg_perigee_deg":258.7192,"mean_anomaly_deg":101.3648,"bstar":0.00016332,"rev_number":78231,"period_min":94.26342828473,"perigee_km":480.44819678355,"apogee_km":485.32775774738,"semimajor_km":6861.0249772655,"source":"CELESTRAK","updated_at":"2026-05-25T13:37:55.299041Z"}}}